Weather History for Taunton, MA

Change the Weather History Date:

Tuesday, September 18, 2012

  Actual Average Record
Temperature  
Mean Temperature 63 °F -  
Max Temperature 77 °F 72 °F 90 °F (1991)
Min Temperature 51 °F 51 °F 32 °F (1950)
Degree Days  
Heating Degree Days 2    
Growing Degree Days 13 (Base 50)    
Moisture  
Dew Point 62 °F    
Average Humidity 78    
Maximum Humidity 96    
Minimum Humidity 68    
Precipitation  
Precipitation 0.01 in - - ()
Sea Level Pressure  
Sea Level Pressure 29.91 in    
Wind  
Wind Speed 9 mph (SSE)    
Max Wind Speed 22 mph    
Max Gust Speed 34 mph    
Visibility 10 miles    
Events Rain    
Averages and records for this station are not official NWS values.
T = Trace of Precipitation, MM = Missing Value Source: NWS Daily Summary

Daily Weather History Graph

Daily Weather History Graph

Search for Another Location

Airport:

Trip Planner

Search our weather history database for the weather conditions in past years. The results will help you decide how hot, cold, wet, or windy it might be!

Date:

Astronomy

Sep. 18, 2012 Rise Set
Actual Time 6:27 AM EDT 6:47 PM EDT
Civil Twilight 5:59 AM EDT 7:15 PM EDT
Nautical Twilight 5:27 AM EDT 7:48 PM EDT
Astronomical Twilight 4:53 AM EDT 8:21 PM EDT
Moon 9:27 AM EDT (9/18) 8:04 PM EDT (9/18)
Length of Visible Light 13h 15m
Length of Day
12h 19m
Waxing Crescent, 9% of the Moon is Illuminated
Sep 18
Waxing Crescent
Sep 22
First Quarter
Sep 29
Full
Oct 8
Last Quarter
Oct 15
New

Hourly Weather History & Observations

Time (EDT) Temp. Dew Point Humidity Pressure Visibility Wind Dir Wind Speed Gust Speed Precip Events Conditions
12:52 AM 55.9 °F 53.1 °F 90% 30.07 in 10.0 mi SSE 3.5 mph - N/A   Clear
1:52 AM 55.0 °F 52.0 °F 89% 30.06 in 10.0 mi SSE 3.5 mph - N/A   Clear
2:52 AM 53.1 °F 51.1 °F 93% 30.06 in 10.0 mi SE 3.5 mph - N/A   Clear
3:52 AM 51.1 °F 50.0 °F 96% 30.04 in 6.0 mi SE 3.5 mph - N/A   Clear
5:52 AM 52.0 °F 50.0 °F 93% 30.03 in 10.0 mi SSE 3.5 mph - N/A   Clear
6:52 AM 55.9 °F 54.0 °F 93% 30.02 in 10.0 mi SE 4.6 mph - N/A   Clear
7:52 AM 63.0 °F 57.0 °F 81% 30.02 in 10.0 mi SSE 5.8 mph - N/A   Clear
8:52 AM 66.0 °F 60.1 °F 81% 30.02 in 10.0 mi SE 8.1 mph - N/A   Clear
9:52 AM 70.0 °F 61.0 °F 73% 30.02 in 10.0 mi Variable 6.9 mph 17.3 mph N/A   Scattered Clouds
10:52 AM 71.1 °F 61.0 °F 70% 29.99 in 10.0 mi SSE 8.1 mph 20.7 mph N/A   Clear
11:52 AM 73.0 °F 62.1 °F 68% 29.96 in 10.0 mi SSE 10.4 mph 26.5 mph N/A   Overcast
12:31 PM 75.0 °F 64.0 °F 69% 29.95 in 10.0 mi SSE 10.4 mph 23.0 mph N/A   Mostly Cloudy
12:52 PM 75.0 °F 64.0 °F 69% 29.94 in 10.0 mi SSE 11.5 mph 21.9 mph N/A   Overcast
1:20 PM 75.0 °F 64.0 °F 69% 29.93 in 10.0 mi South 11.5 mph 21.9 mph N/A   Mostly Cloudy
1:52 PM 75.0 °F 64.0 °F 69% 29.92 in 10.0 mi SSE 11.5 mph 21.9 mph N/A   Overcast
2:52 PM 73.0 °F 64.0 °F 73% 29.90 in 10.0 mi SSE 13.8 mph 27.6 mph 0.00 in Rain Light Rain
3:22 PM 73.0 °F 64.0 °F 73% 29.88 in 10.0 mi SSE 13.8 mph 27.6 mph 0.00 in   Overcast
3:37 PM 73.9 °F 64.0 °F 71% 29.88 in 10.0 mi SSE 13.8 mph 26.5 mph 0.00 in   Overcast
3:52 PM 73.9 °F 64.9 °F 73% 29.88 in 10.0 mi SSE 11.5 mph 25.3 mph 0.00 in   Overcast
4:52 PM 73.9 °F 64.9 °F 73% 29.86 in 10.0 mi SSE 11.5 mph 21.9 mph N/A   Overcast
5:52 PM 73.9 °F 66.0 °F 76% 29.85 in 10.0 mi South 17.3 mph 27.6 mph N/A   Overcast
6:52 PM 73.9 °F 66.0 °F 76% 29.83 in 10.0 mi South 13.8 mph 28.8 mph N/A   Mostly Cloudy
7:36 PM 73.9 °F 66.0 °F 76% 29.82 in 10.0 mi South 16.1 mph 31.1 mph N/A   Mostly Cloudy
7:52 PM 73.9 °F 66.0 °F 76% 29.82 in 10.0 mi SSE 16.1 mph 32.2 mph N/A   Overcast
8:03 PM 73.9 °F 66.0 °F 76% 29.82 in 10.0 mi South 21.9 mph 34.5 mph N/A   Mostly Cloudy
8:17 PM 73.9 °F 66.0 °F 76% 29.82 in 10.0 mi South 15.0 mph 28.8 mph N/A   Mostly Cloudy
8:29 PM 73.9 °F 66.0 °F 76% 29.81 in 10.0 mi South 13.8 mph 31.1 mph N/A   Mostly Cloudy
8:37 PM 73.9 °F 66.0 °F 76% 29.81 in 10.0 mi South 15.0 mph 29.9 mph N/A   Mostly Cloudy
8:52 PM 73.9 °F 66.0 °F 76% 29.80 in 10.0 mi South 16.1 mph 28.8 mph 0.00 in Rain Light Rain
9:52 PM 73.9 °F 66.0 °F 76% 29.78 in 10.0 mi South 15.0 mph 34.5 mph 0.00 in   Overcast
10:52 PM 73.9 °F 66.9 °F 79% 29.78 in 10.0 mi South 11.5 mph 31.1 mph 0.00 in Rain Light Rain
11:28 PM 73.9 °F 66.9 °F 79% 29.77 in 9.0 mi South 16.1 mph 27.6 mph 0.00 in Rain Light Rain
11:52 PM 73.0 °F 68.0 °F 84% 29.76 in 10.0 mi South 12.7 mph 29.9 mph 0.01 in Rain Light Rain